Regional Weather Roundup
Issued by NWS

Home | Current Version | Previous Version | Graphics & Text | Print | Product List | Glossary Off
Versions: 1 2 3 4 5 6 7 8 9 10 11 12 13 14 15 16 17 18 19 20 21 22 23 24 25 26 27 28 29 30 31 32 33 34 35 36 37 38 39 40 41 42 43 44 45 46 47 48 49 50

000
ASUS43 KLOT 281519
RWRIL

ILLINOIS REGIONAL WEATHER ROUNDUP
NATIONAL WEATHER SERVICE CHICAGO/ROMEOVILLE IL
1000 AM CDT TUE APR 28 2015

NOTE: "FAIR" INDICATES FEW OR NO CLOUDS BELOW 12,000 FEET WITH NO
SIGNIFICANT WEATHER AND/OR OBSTRUCTIONS TO VISIBILITY.

* THESE STATIONS ARE NOT UNDER NWS QUALITY CONTROL. THEY ALSO MAY NOT
  REPORT WEATHER SUCH AS PRECIPITATION OR FOG.

ILZ001-002-007-009-015-016-024-281600-
NORTHWEST ILLINOIS

CITY           SKY/WX    TMP DP  RH WIND       PRES   REMARKS
MOLINE         FAIR      58  39  49 CALM      30.13F
STERLING*      FAIR      55  39  54 E6        30.15F
SAVANNA*       FAIR      57  36  45 E5        30.15S
$$

ILZ003-004-008-010-011-017-018-281600-
NORTH CENTRAL ILLINOIS

CITY           SKY/WX    TMP DP  RH WIND       PRES   REMARKS
ROCKFORD       FAIR      55  35  47 CALM      30.18F
FREEPORT*      FAIR      52  36  54 E3        30.17F
ROCHELLE*      FAIR      51  36  57 CALM      30.16F
DE KALB*       FAIR      50  36  58 NE3       30.16S
PERU*          FAIR      53  36  52 CALM      30.16S
$$

ILZ005-006-012>014-019>023-281600-
NORTHEAST ILLINOIS

CITY           SKY/WX    TMP DP  RH WIND       PRES   REMARKS
CHICAGO-OHARE  FAIR      50  34  54 NE7       30.15F
CHICAGO-MIDWAY FAIR      54  37  52 VRB3      30.16F
AURORA         FAIR      53  36  52 CALM      30.16F
LANSING*       FAIR      52  35  52 W3        30.16F
JOLIET*        FAIR      53  37  55 CALM      30.16F
WAUKEGAN       FAIR      49  37  63 VRB5      30.15F
DUPAGE AIRPORT FAIR      50  36  58 CALM      30.14F
KANKAKEE*      FAIR      53  40  61 CALM      30.16F
WHEELING       FAIR      50  35  56 VRB7      30.17F
MORRIS*        FAIR      51  35  55 CALM      30.14F
ROMEOVILLE*    FAIR      52  34  51 N3        30.15F
NORTHERLY ISL    N/A     48  40  73 N9          N/A
$$

LMZ740>746-281600-
SOUTHERN LAKE MICHIGAN

STATION/POSITION SKY/WX   TEMP    WIND        PRES    VSBY  WAVE
                          AIR SEA DIR/SP/G                  HT/PER
                          (F)     (DEG/KT/KT) (MB)    (MI)  (FT/S)
$$

ILZ025>027-034>036-040-047-049-050-058-095>099-281600-
WEST-CENTRAL ILLINOIS

CITY           SKY/WX    TMP DP  RH WIND       PRES   REMARKS
QUINCY         FAIR      58  40  51 CALM      30.14F
GALESBURG*     FAIR      57  40  53 SW5       30.14F
MACOMB*        FAIR      58  39  49 SW3       30.16F
JACKSONVILLE*  FAIR      57  38  49 E5        30.15S
PITTSFIELD*    FAIR      59  39  48 CALM      30.15F
$$

ILZ028>032-037-038-041>044-048-051>054-059>061-281600-
CENTRAL ILLINOIS

CITY           SKY/WX    TMP DP  RH WIND       PRES   REMARKS
PONTIAC        FAIR      53  39  59 E3        30.16F
BLOOMINGTON    FAIR      54  40  59 VRB3      30.16F
DECATUR        FAIR      55  39  54 NE7       30.14F
PEORIA         FAIR      56  37  49 CALM      30.15F
LACON*         FAIR      53  36  53 S3        30.15F
LINCOLN*       FAIR      55  40  56 CALM      30.14F
SPRINGFIELD    FAIR      55  39  54 E3        30.15F
TAYLORVILLE    FAIR      54  37  54 NE3       30.14F
$$

ILZ033-039-045-046-055>057-062-063-281600-
EAST-CENTRAL ILLINOIS

CITY           SKY/WX    TMP DP  RH WIND       PRES   REMARKS
CHAMPAIGN      FAIR      54  36  50 VRB6      30.14F
DANVILLE*      FAIR      51  36  55 NE5       30.13F
RANTOUL*       FAIR      54  37  52 CALM      30.15F
MATTOON        FAIR      54  36  50 E8        30.13F
PARIS*         FAIR      53  40  60 E7        30.15F
$$

ILZ079-100>102-281600-
SOUTHWEST ILLINOIS

CITY           SKY/WX    TMP DP  RH WIND       PRES   REMARKS
ALTON          MOSUNNY   55  36  47 NE8       30.14F
BELLEVILLE     FAIR      55  42  60 E9        30.12S
CAHOKIA*       FAIR      57  39  51 NE8       30.13S
SPARTA*        FAIR      54  42  64 NE9       30.12S
$$

ILZ064>066-069>071-074>076-080>082-084>086-088>090-092>094-281600-
SOUTH-CENTRAL ILLINOIS

CITY           SKY/WX    TMP DP  RH WIND       PRES   REMARKS
CARBONDALE     FAIR      56  37  49 NE13      30.10S
CAIRO*         FAIR      55  42  60 NE13      30.08R
EFFINGHAM*     FAIR      54  35  48 NE6       30.14F
MARION         SUNNY     57  39  51 N12       30.11R
MT. VERNON     FAIR      55  39  54 E10       30.12S
CENTRALIA*     FAIR      61  39  43 E9        30.11F
SALEM*         FAIR      56  39  52 NE10      30.12F
METROPOLIS*    FAIR      56  40  55 E8        30.07S
$$

ILZ067-068-072-073-078-083-087-091-281600-
SOUTHEAST ILLINOIS

CITY           SKY/WX    TMP DP  RH WIND       PRES   REMARKS
LAWRENCEVILLE  FAIR      55  38  52 NE9       30.13F
FLORA*         FAIR      54  38  55 NE13      30.12F
FAIRFIELD*     FAIR      55  39  54 NE10G16   30.10F
HARRISBURG*    FAIR      55  40  57 E15       30.11S
ROBINSON*      FAIR      54  38  55 NE8       30.14F
CARMI*         FAIR      55  35  47 NE14      30.10S
$$

ABBREVIATIONS USED IN REMARKS
   TC - TEMPERATURE IN CELSIUS
  WCI - WIND CHILL INDEX
   HX - HEAT INDEX
  VSB - VISIBILITY
$$



USA.gov is the U.S. government's official web portal to all federal, state and local government web resources and services.